Location: Newark
(37.9717°N, 99.9089°W)
Time: 02:22:09
(UTC+00:00)

X-37B - Pass Details

Date: 04 October 2021
Orbit: 445 x 447 km, 45.0° (Epoch: 24 October)

Event Time Altitude Azimuth Distance (km) Brightness Sun altitude
Exits shadow 10:41:14 47° 104° (ESE) 599 1.8 -23.7°
Drops below altitude 10° 10:43:51 10° 114° (ESE) 1,560 4.3 -23.2°
Sets 10:45:59 0° 115° (ESE) 2,428 5.4 -22.8°
